Regional Weather Roundup
Issued by NWS

Home | Current Version | Previous Version | Graphics & Text | Print | Product List | Glossary On
Versions: 1 2 3 4 5 6 7 8 9 10 11 12 13 14 15 16 17 18 19 20 21 22 23 24 25 26 27 28 29 30 31 32 33 34 35 36 37 38 39 40 41 42 43 44 45 46 47 48 49 50
000
ASUS43 KLSX 260659
RWRMO

WEATHER SUMMARY FOR MISSOURI
NATIONAL WEATHER SERVICE SPRINGFIELD MO
200 AM CDT SUN OCT 26 2014

NOTE: "FAIR" INDICATES FEW OR NO CLOUDS BELOW 12,000 FEET WITH NO
       SIGNIFICANT WEATHER AND/OR OBSTRUCTIONS TO VISIBILITY.
       CURRENT SKY AND/OR WEATHER CONDITIONS ARE NOT AVAILABLE FOR
       CHILLICOTHE AND FARMINGTON.

MOZ001>031-035>038-043-044-053-054-260800-
...NORTHERN AND WESTERN MISSOURI...

CITY           SKY/WX    TMP DP  RH WIND       PRES   REMARKS
KANSAS CTY INT CLEAR     62  48  60 E10       29.99S
KANSAS C DTWN  CLEAR     59  50  72 E5        29.98F
LEE`S SUMMIT   CLEAR     62  51  67 SE6       30.00S
ST JOSEPH      CLEAR     60  46  59 E5        30.00R
CHILLICOTHE      N/A     58  43  57 CALM      30.03F
KIRKSVILLE     CLEAR     52  41  66 NE7       30.04S

$$
MOZ066>068-077>081-088>096-101>105-260800-
...SOUTHWEST MISSOURI...

CITY           SKY/WX    TMP DP  RH WIND       PRES   REMARKS
SPRINGFIELD    CLEAR     57  56  96 SE6       30.00F FOG
JOPLIN         CLEAR     65  62  90 S9        29.98F

$$
MOZ032>034-039>042-045>050-055>058-069>072-260800-
...CENTRAL MISSOURI...

CITY           SKY/WX    TMP DP  RH WIND       PRES   REMARKS
COLUMBIA       CLEAR     59  48  67 E9        30.02S
JEFFERSON CITY CLEAR     54  53  97 CALM      30.01S
ROLLA          CLEAR     58  54  86 E3        30.00S
SEDALIA        CLEAR     60  52  74 E5        30.01F
OSAGE BEACH    CLEAR     55  52  88 CALM      30.01S

$$
MOZ051-052-059>065-260800-
...EAST CENTRAL MISSOURI...

CITY           SKY/WX    TMP DP  RH WIND       PRES   REMARKS
ST LOUIS INTL  CLEAR     56  50  80 CALM      30.02F
SPIRIT OF STL  CLEAR     50  49  96 CALM      30.01S FOG
ST CHARLES     CLEAR     60  44  55 E3        30.02S

$$
MOZ072>076-082>087-097>100-106>115-260800-
...SOUTH CENTRAL AND SOUTHEAST MISSOURI...

CITY           SKY/WX    TMP DP  RH WIND       PRES   REMARKS
CAPE GIRARDEAU CLEAR     56  55  97 CALM      29.99S FOG
FARMINGTON     CLEAR     54  52  94 CALM      30.04S
POPLAR BLUFF   FOG       56  54  93 N3        29.98S VSB 1/4
WEST PLAINS    CLEAR     57  54  89 CALM      30.02S

$$



USA.gov is the U.S. government's official web portal to all federal, state and local government web resources and services.